Location: Capvern
(43.1036°N, 0.3160°E)
Time: 06:15:21
(UTC+00:00)

Cosmos 489 Rocket - Pass Details

Date: 01 June 2022
Orbit: 952 x 983 km, 74.0° (Epoch: 03 July)

Event Time Altitude Azimuth Distance (km) Brightness Sun altitude
Rises 00:30:20 0° 353° (N) 3,646 8.8 -24.4°
Reaches altitude 10° 00:36:02 10° 35° (NE) 2,702 7.7 -24.2°
Maximum altitude 00:36:52 10° 43° (NE) 2,684 7.6 -24.2°
Drops below altitude 10° 00:37:43 10° 50° (NE) 2,703 7.5 -24.2°
Sets 00:43:23 0° 92° (E) 3,654 7.6 -24.0°
